Location: Altleiningen
(49.5078°N, 8.0741°E)
Time: 11:43:31
(UTC+00:00)

Cosmos 968 Rocket - Pass Details

Date: 03 March 2021
Orbit: 740 x 771 km, 74.0° (Epoch: 12 April)

Event Time Altitude Azimuth Distance (km) Brightness Sun altitude
Rises 17:47:34 0° 336° (NNW) 3,249 7.1 -6.3°
Reaches altitude 10° 17:49:57 10° 336° (NNW) 2,322 6.3 -6.6°
Maximum altitude 17:55:14 89° 251° (WSW) 779 3.6 -7.5°
Drops below altitude 10° 18:00:31 10° 159° (SSE) 2,310 5.8 -8.4°
Sets 18:02:52 0° 159° (SSE) 3,232 6.5 -8.7°
